Location: Bratislava
(48.1500°N, 17.1167°E)
Time: 12:02:02
(UTC+02:00)

ISS - Visible Passes

Search period start: 21 July 2018 00:00
Search period end: 31 July 2018 00:00
Orbit: 402 x 408 km, 51.6° (Epoch: 21 July)

Date Brightness Start Highest point End Pass type
(mag) Time Alt. Az. Time Alt. Az. Time Alt. Az.
21 Jul -2.7 01:24:46 10° WNW 01:27:57 45° N 01:31:09 10° E visible
21 Jul -4.0 03:01:19 10° WNW 03:04:37 75° SSW 03:07:54 10° ESE visible
21 Jul -2.7 21:19:57 10° SSW 21:22:41 25° SE 21:25:27 10° E visible
21 Jul -3.7 22:55:40 10° WSW 22:58:56 74° NNW 23:02:14 10° ENE visible
22 Jul -2.6 00:32:33 10° WNW 00:35:42 43° N 00:38:53 10° ENE visible
22 Jul -3.7 02:09:10 10° WNW 02:12:28 76° NNE 02:15:46 10° ESE visible
22 Jul -2.7 03:45:58 10° W 03:48:43 24° SW 03:51:27 10° SSE visible
22 Jul -3.9 22:03:31 10° WSW 22:06:47 76° SSE 22:10:05 10° ENE visible
22 Jul -2.7 23:40:16 10° W 23:43:27 45° N 23:46:38 10° ENE visible
23 Jul -3.2 01:17:00 10° WNW 01:20:16 57° NNE 01:20:49 48° ENE visible
23 Jul -3.0 22:47:57 10° W 22:51:11 52° NNW 22:54:25 10° ENE visible
24 Jul -2.8 00:24:48 10° WNW 00:28:00 47° N 00:29:05 33° ENE visible
24 Jul -1.2 02:01:20 10° WNW 02:01:40 12° WNW 02:01:40 12° WNW visible
24 Jul -3.4 21:55:40 10° WSW 21:58:56 66° NNW 22:02:13 10° ENE visible
24 Jul -2.6 23:32:34 10° WNW 23:35:43 43° N 23:38:03 16° ENE visible
25 Jul -2.0 01:09:08 10° WNW 01:10:39 25° WNW 01:10:39 25° WNW visible
25 Jul -2.6 22:40:15 10° WNW 22:43:25 43° N 22:46:36 10° ENE visible
26 Jul -3.2 00:16:56 10° WNW 00:19:51 57° NNW 00:19:51 57° NNW visible
26 Jul -2.8 21:47:54 10° W 21:51:07 48° N 21:54:19 10° ENE visible
26 Jul -3.0 23:24:43 10° WNW 23:27:56 50° N 23:29:08 31° ENE visible
27 Jul -1.2 01:01:16 10° WNW 01:01:45 14° WNW 01:01:45 14° WNW visible
27 Jul -2.7 22:32:27 10° WNW 22:35:37 44° N 22:38:28 12° ENE visible
28 Jul -2.6 00:09:00 10° WNW 00:11:04 36° WNW 00:11:04 36° WNW visible
28 Jul -2.6 21:40:08 10° WNW 21:43:17 43° N 21:46:27 10° ENE visible
28 Jul -3.6 23:16:46 10° WNW 23:20:03 69° NNE 23:20:27 60° ENE visible
29 Jul -3.2 22:24:31 10° WNW 22:27:45 53° NNE 22:29:51 19° E visible
30 Jul -1.8 00:01:04 10° WNW 00:02:28 22° W 00:02:28 22° W visible
30 Jul -2.8 21:32:14 10° WNW 21:35:24 45° N 21:38:35 10° E visible
30 Jul -3.8 23:08:45 10° WNW 23:11:53 70° SW 23:11:53 70° SW visible
